Location: Kumla
(59.1265°N, 15.1401°E)
Time: 19:00:54
(UTC+01:00)

Vanguard 1 Rocket - Pass Details

Date: 11 December 2023
Orbit: 654 x 4218 km, 34.3° (Epoch: 21 February)

Event Time Altitude Azimuth Distance (km) Brightness Sun altitude
Rises 01:00:50 0° 184° (S) 8,418 - -51.8°
Reaches altitude 10° 01:11:25 10° 165° (SSE) 7,365 - -51.2°
Exits shadow 01:17:39 14° 151° (SSE) 6,855 11.6 -50.8°
Maximum altitude 01:21:49 14° 140° (SE) 6,599 11.6 -50.5°
Drops below altitude 10° 01:30:56 10° 114° (ESE) 6,404 11.7 -49.8°
Sets 01:38:32 0° 94° (E) 6,737 12.1 -49.2°
